Casper-Natrona County International Airport
KCPR : now visible

Airfield :











YOU CAN JOIN US ON...

 
LOGIN :

Register | Disclaimer

   EN    FR    IT 

 









Legend :    VFR   Marginal VFR   IFR   Intensive IFR   Very Intensive IFR
Visi :
Ceiling :
>= 8 km
>= 3000ft
5 to 8 km
1000 to 3000 ft
1500m to 5 km
500 to 1000 ft
800 to 1500m
200 to 500 ft
< 800m
< 200 ft
Symbols :   Thunderstorms  Fog  Heavy snow  Heavy precipitations  Wind > 20 kt






- Airport Elevation : 5350 ft
- IATA code : CPR


KCPR - Casper-Natrona County International

CURRENT METAR :
  • 281653Z 21012KT 10SM CLR 07/M04 A3015 RMK AO2 SLP211 T00671044

EXPIRED METARs :
  • 281553Z 22014KT 10SM CLR 03/M05 A3012 RMK AO2 SLP205 T00331050
  • 281453Z 23011KT 10SM CLR 02/M06 A3011 RMK AO2 SLP206 T00221056 53015

TAF KCPR
Valid from the 28 at 12:00 until the 29 at 12:00 UTC


281122Z 2812/2912 22012G22KT P6SM SCT200
FM282100 22010KT P6SM SKC
KZDV FIR / North America



MET'MAP, your aeronautical weather chart ! - Copyright ORBIFLY December 2007 - Disclaimer

ORBIFLY MET'MAP TEAM :

Programming & Development : Alexandra Zaïnal
Concept & original design : Baudouin d'Aumeries
Assistance for programming : Marc-Olivier Méhu
Technical & hardware support : Manuel Goepfert

Contact : metmap@orbifly.com




SOURCES & CREDITS :

   NOAA       Earth
Advisory